Location: Chervonnoye
(48.6000°N, 34.4000°E)
Time: 14:19:04
(UTC+00:00)

CZ-2D R/B - Pass Details

Date: 23 November 2020
Orbit: 520 x 538 km, 97.4° (Epoch: 26 January)

Event Time Altitude Azimuth Distance (km) Brightness Sun altitude
Rises 16:03:47 0° 171° (S) 2,639 6.8 -20.9°
Reaches altitude 10° 16:05:53 10° 174° (S) 1,758 5.9 -21.2°
Maximum altitude 16:09:40 70° 258° (WSW) 562 3.4 -21.9°
Drops below altitude 10° 16:13:30 10° 343° (NNW) 1,783 6.0 -22.5°
Sets 16:15:38 0° 346° (NNW) 2,681 6.9 -22.8°
